When you browse on this site, cookies collect data to enhance your experience and personalize the content and advertising you see.
Visit our Privacy Policy to learn more. By continuing to use the site, you agree to this use of cookies and data.
  • In Hungary
  • List of Countries
  • For 7 days
  • Water Temperature
  • Weather Map
  • News
  • Weather Widgets
  • user-avatar
    Login

    Hourly Weather Milijeve

    Today, 26 August, Monday

    Time Temperature Precipitation Wind Pressure Humidity
    00:00 +23°C° 0 mm 1 mps 741 mmHg 81%
    01:00 +22°C° 0 mm 1 mps 741 mmHg 81%
    02:00 +22°C° 0 mm 1 mps 741 mmHg 83%
    03:00 +21°C° 0 mm 1 mps 741 mmHg 84%
    04:00 +21°C° 0 mm 1 mps 741 mmHg 86%
    05:00 +21°C° 0 mm 1 mps 741 mmHg 87%
    06:00 +20°C° 0 mm 1 mps 741 mmHg 87%
    07:00 +21°C° 0 mm 1 mps 741 mmHg 86%
    08:00 +20°C° 0 mm 0 mps 741 mmHg 88%
    09:00 +24°C° 0 mm 1 mps 741 mmHg 86%
    10:00 +26°C° 0 mm 2 mps 742 mmHg 86%
    11:00 +27°C° 0 mm 3 mps 742 mmHg 81%
    12:00 +28°C° 0 mm 3 mps 742 mmHg 76%
    13:00 +29°C° 0 mm 4 mps 741 mmHg 70%
    14:00 +30°C° 0 mm 4 mps 741 mmHg 64%
    15:00 +29°C° 0 mm 3 mps 741 mmHg 66%
    16:00 +22°C° 5.1 mm 8 mps 741 mmHg 86%
    17:00 +23°C° 2 mm 4 mps 740 mmHg 80%
    18:00 +25°C° 0 mm 1 mps 740 mmHg 77%
    19:00 +25°C° 0 mm 1 mps 740 mmHg 77%
    20:00 +24°C° 0 mm 2 mps 740 mmHg 87%
    21:00 +23°C° 0 mm 1 mps 740 mmHg 94%
    22:00 +23°C° 0 mm 1 mps 741 mmHg 92%
    23:00 +22°C° 0 mm 1 mps 741 mmHg 92%

    Tomorrow, 27 August, Tuesday

    Time Temperature Precipitation Wind Pressure Humidity
    00:00 +22°C° 0 mm 1 mps 741 mmHg 95%
    01:00 +21°C° 0 mm 1 mps 741 mmHg 94%
    02:00 +21°C° 0 mm 1 mps 741 mmHg 90%
    03:00 +21°C° 0 mm 1 mps 740 mmHg 88%
    04:00 +20°C° 0 mm 1 mps 740 mmHg 89%
    05:00 +20°C° 0 mm 1 mps 740 mmHg 88%
    06:00 +20°C° 0 mm 1 mps 740 mmHg 89%
    07:00 +20°C° 0 mm 1 mps 741 mmHg 92%
    08:00 +21°C° 0 mm 1 mps 741 mmHg 94%
    09:00 +22°C° 0 mm 1 mps 741 mmHg 94%
    10:00 +25°C° 0 mm 2 mps 742 mmHg 91%
    11:00 +26°C° 0 mm 4 mps 741 mmHg 79%
    12:00 +27°C° 0 mm 4 mps 742 mmHg 74%
    13:00 +27°C° 0 mm 4 mps 741 mmHg 78%
    14:00 +27°C° 0 mm 5 mps 741 mmHg 77%
    15:00 +27°C° 0 mm 4 mps 741 mmHg 76%
    16:00 +27°C° 0 mm 4 mps 740 mmHg 73%
    17:00 +27°C° 0 mm 4 mps 740 mmHg 75%
    18:00 +26°C° 0 mm 4 mps 740 mmHg 78%
    19:00 +24°C° 0 mm 3 mps 740 mmHg 86%
    20:00 +22°C° 0 mm 3 mps 741 mmHg 90%
    21:00 +23°C° 0 mm 2 mps 741 mmHg 94%
    22:00 +21°C° 0 mm 2 mps 741 mmHg 94%
    23:00 +21°C° 0 mm 1 mps 741 mmHg 95%

    Day after tomorrow, 28 August, Wednesday

    Time Temperature Precipitation Wind Pressure Humidity
    00:00 +21°C° 0 mm 1 mps 741 mmHg 95%
    01:00 +20°C° 0 mm 1 mps 741 mmHg 94%
    02:00 +19°C° 0 mm 1 mps 741 mmHg 93%
    03:00 +19°C° 0 mm 1 mps 740 mmHg 92%
    04:00 +18°C° 0 mm 2 mps 740 mmHg 93%
    05:00 +18°C° 0 mm 1 mps 740 mmHg 94%
    06:00 +17°C° 0 mm 2 mps 740 mmHg 95%
    07:00 +17°C° 0 mm 2 mps 740 mmHg 97%
    08:00 +19°C° 0 mm 1 mps 740 mmHg 99%
    09:00 +20°C° 0 mm 2 mps 741 mmHg 95%
    10:00 +24°C° 0 mm 3 mps 741 mmHg 87%
    11:00 +25°C° 0 mm 4 mps 741 mmHg 83%
    12:00 +25°C° 0 mm 5 mps 741 mmHg 81%
    13:00 +26°C° 0 mm 5 mps 740 mmHg 80%
    14:00 +26°C° 0 mm 5 mps 740 mmHg 78%
    15:00 +26°C° 0 mm 5 mps 740 mmHg 76%
    16:00 +26°C° 0 mm 5 mps 739 mmHg 78%
    17:00 +25°C° 0 mm 5 mps 739 mmHg 81%
    18:00 +25°C° 0 mm 4 mps 739 mmHg 85%
    19:00 +24°C° 0 mm 3 mps 739 mmHg 89%
    20:00 +22°C° 0 mm 3 mps 739 mmHg 93%
    21:00 +21°C° 0 mm 3 mps 739 mmHg 95%
    22:00 +20°C° 0 mm 2 mps 739 mmHg 96%
    23:00 +20°C° 0 mm 2 mps 739 mmHg 97%

    29 August, Thursday

    Time Temperature Precipitation Wind Pressure Humidity
    00:00 +19°C° 0 mm 2 mps 739 mmHg 97%
    01:00 +19°C° 0 mm 2 mps 739 mmHg 96%
    02:00 +18°C° 0 mm 2 mps 739 mmHg 95%
    03:00 +18°C° 0 mm 2 mps 739 mmHg 93%
    04:00 +18°C° 0 mm 1 mps 739 mmHg 95%
    05:00 +17°C° 0 mm 2 mps 739 mmHg 95%
    06:00 +17°C° 0 mm 2 mps 739 mmHg 94%
    07:00 +17°C° 0 mm 2 mps 739 mmHg 94%
    08:00 +19°C° 0 mm 1 mps 739 mmHg 97%
    09:00 +20°C° 0 mm 2 mps 739 mmHg 94%
    10:00 +22°C° 0 mm 3 mps 739 mmHg 87%
    11:00 +23°C° 0 mm 4 mps 739 mmHg 87%
    12:00 +25°C° 0 mm 4 mps 740 mmHg 92%
    13:00 +25°C° 0 mm 5 mps 739 mmHg 89%
    14:00 +25°C° 0 mm 5 mps 739 mmHg 83%

    30 August, Friday

    Time Temperature Precipitation Wind Pressure Humidity

    31 August, Saturday

    Time Temperature Precipitation Wind Pressure Humidity
    Show more